This demonstration page uses our WeatherBlox Daily Observations layout. Learn more.

Left ArrowRight Arrow

39.01783, -85.05884

Hourly Observations for September 8, 2020

Temp ( °F °C ) Dew Point ( °F °C ) Humidity (%) Winds ( mph kmh ) Pressure ( in mb ) Visibility ( mi km ) Precip ( " mm )
12:52 am 00:52 Partly Cloudy 71 21.7 63 17.2 76 76 S 6 9 29.94 1014 10 16 0.00 0.00
1:52 am 01:52 Mostly Clear 69 20.6 63 17.2 81 81 S 7 11 29.95 1014 10 16 0.00 0.00
2:52 am 02:52 Mostly Clear 68 20 62 16.7 81 81 S 7 11 29.95 1014 10 16 0.00 0.00
3:52 am 03:52 Mostly Clear 68 20 62 16.7 81 81 E 6 9 29.96 1015 10 16 0.00 0.00
4:52 am 04:52 Partly Cloudy 68 20 62 16.7 81 81 SE 7 11 29.97 1015 10 16 0.00 0.00
5:52 am 05:52 Partly Cloudy 65 18.3 62 16.7 90 90 S 7 11 29.98 1015 10 16 0.00 0.00
6:52 am 06:52 Partly Cloudy 68 20 62 16.7 81 81 Calm 30.00 1016 10 16 0.00 0.00
7:52 am 07:52 Mostly Cloudy 65 18.3 61 16.1 87 87 SE 5 7 30.03 1017 10 16 0.00 0.00
8:52 am 08:52 Mostly Cloudy 69 20.6 64 17.8 84 84 SSE 7 11 30.03 1017 9 14 0.00 0.00
9:52 am 09:52 Partly Cloudy 73 22.8 64 17.8 74 74 S 10 17 30.04 1017 10 16 0.00 0.00
10:52 am 10:52 Mostly Sunny 77 25 65 18.3 66 66 S 8 13 30.06 1018 10 16 0.00 0.00
11:52 am 11:52 Sunny 81 27.2 65 18.3 58 58 VRB 5 7 30.07 1018 10 16 0.00 0.00
12:52 pm 12:52 Mostly Sunny 83 28.3 66 18.9 57 57 VRB 3 6 30.06 1018 10 16 0.00 0.00
1:52 pm 13:52 Mostly Sunny 84 28.9 65 18.3 53 53 S 8 13 30.05 1018 10 16 0.00 0.00
2:52 pm 14:52 Mostly Sunny 85 29.4 65 18.3 51 51 SW 7 11 30.03 1017 10 16 0.00 0.00
3:52 pm 15:52 Mostly Sunny 85 29.4 65 18.3 51 51 S 7 11 30.03 1017 10 16 0.00 0.00
4:52 pm 16:52 Mostly Sunny 85 29.4 64 17.8 50 50 SSW 9 15 30.02 1017 10 16 0.00 0.00
5:52 pm 17:52 Mostly Sunny 84 28.9 64 17.8 51 51 SSW 6 9 30.02 1017 10 16 0.00 0.00
6:52 pm 18:52 Sunny 83 28.3 63 17.2 51 51 SSE 8 13 30.03 1017 10 16 0.00 0.00
7:52 pm 19:52 Sunny 79 26.1 64 17.8 60 60 S 3 6 30.04 1017 10 16 0.00 0.00
8:52 pm 20:52 Clear 77 25 64 17.8 64 64 S 5 7 30.05 1018 10 16 0.00 0.00
9:52 pm 21:52 Clear 71 21.7 64 17.8 79 79 SSE 7 11 30.06 1018 10 16 0.00 0.00
10:52 pm 22:52 Clear 73 22.8 63 17.2 71 71 SSE 8 13 30.06 1018 10 16 0.00 0.00
11:52 pm 23:52 Mostly Clear 73 22.8 63 17.2 71 71 S 5 7 30.08 1019 10 16 0.00 0.00

Powered by AerisWeather